Wind_Speed
19 11 8 6 5 3 1 3 4 3 3 4 3 6 2 3 7 1 3 8 10 12 8 12 11 11 10 6 8 8 4 3 5 7 6 8 8 6 7 7 10 10 11
9 9 7 7 5 3 2 0 2 1 3 5 6 6 3 5 8 4 7 9 12 12 10 13 10 9 8 9 9 7 4 2 4 5 8 8 9 10 7 7 7 10 9
6 5 4 7 6 4 5 3 2 3 3 6 7 4 3 5 5 5 5 6 9 14 12 11 9 8 8 7 8 6 3 5 4 8 6 10 11 9 7 8 6 5 7
6 4 6 6 5 4 7 5 2 1 2 5 5 3 3 2 4 5 7 7 2 7 10 8 7 9 7 6 6 6 8 5 8 9 9 1 4 10 8 6 7 8 6
14 14 14 10 6 6 5 5 1 2 3 1 2 5 6 4 2 2 6 8 5 5 6 10 10 6 5 7 8 8 7 5 6 4 6 4 5 6 13 12 11 10 10
20 14 12 9 12 10 7 3 1 7 8 5 2 2 5 6 7 6 5 7 7 6 7 10 11 11 9 8 8 6 6 4 1 2 3 3 4 8 13 18 20 15 13
16 15 11 12 12 8 6 4 5 8 8 8 6 4 3 3 5 8 11 11 9 8 6 7 11 13 12 11 10 9 9 7 6 8 7 7 8 11 14 14 18 15 16
14 15 14 14 11 9 9 11 11 10 8 7 6 6 5 4 3 6 10 11 12 13 12 11 10 12 14 15 14 11 8 9 9 9 9 10 14 14 13 12 14 19 18
10 9 9 10 11 9 9 9 10 10 9 6 7 8 8 8 7 8 6 8 9 10 13 14 14 15 16 16 16 14 11 10 12 12 10 12 15 15 15 16 13 11 12
9 7 7 5 4 3 7 8 8 7 5 4 5 6 9 12 12 11 9 8 8 10 13 14 14 18 20 21 20 19 15 13 11 12 15 15 17 15 17 13 7 7 12
13 13 10 10 8 6 3 7 11 11 12 11 10 9 11 11 12 14 13 9 9 12 15 15 15 18 20 20 23 23 18 16 13 14 15 16 16 15 16 13 7 7 10
14 17 18 17 15 13 9 7 11 12 13 15 18 17 14 14 15 15 14 12 12 11 17 18 17 18 25 25 24 24 23 20 17 16 15 15 17 14 14 16 13 7 8
22 22 23 23 23 20 14 11 11 14 15 16 20 22 25 24 20 19 20 18 14 14 15 17 17 19 21 15 23 26 25 23 21 20 18 17 17 16 16 15 15 12 6
21 20 22 23 22 23 25 24 21 19 20 20 22 24 25 27 28 27 24 27 22 16 15 18 18 18 22 26 22 25 26 25 24 24 23 22 21 20 18 17 16 15 14
23 22 23 23 25 26 26 27 29 29 28 28 28 28 30 32 33 32 33 36 33 18 21 20 20 20 20 24 26 27 25 28 32 26 29 27 26 25 22 21 19 18 14
22 24 24 22 23 27 30 31 32 33 34 35 36 37 38 38 39 40 39 39 35 15 25 29 24 21 21 25 27 27 29 35 33 32 31 34 31 27 25 25 22 20 18
24 23 22 24 26 27 28 30 32 35 37 40 44 47 47 44 43 44 45 45 41 38 31 33 29 28 24 25 29 30 31 32 32 34 34 30 31 30 29 27 26 24 22
28 28 28 27 28 28 29 31 35 37 41 46 48 48 46 42 42 42 43 46 49 46 41 40 36 34 31 30 30 32 32 32 32 34 34 32 36 33 32 31 29 26 24
33 33 32 31 31 31 32 33 37 41 45 49 48 43 42 40 37 35 36 39 45 51 51 44 43 43 39 37 36 35 35 35 34 35 35 32 33 36 36 36 33 30 28
37 36 35 34 34 34 35 38 41 44 47 46 46 48 45 41 39 40 40 39 38 44 52 56 49 45 45 44 43 42 39 37 37 38 38 36 33 38 41 38 36 34 32
38 38 37 36 36 38 41 43 46 49 50 48 47 45 46 45 44 41 43 43 41 43 47 55 60 54 50 52 49 47 45 42 42 43 42 39 37 37 41 40 38 35 38
40 39 39 38 39 42 46 48 50 51 51 45 37 37 40 43 45 47 46 44 44 43 41 44 56 64 64 64 49 48 55 48 44 43 43 45 44 42 41 40 37 39 40
39 39 40 41 43 45 47 48 49 51 47 41 42 44 43 46 47 47 44 43 44 42 45 44 40 53 59 72 73 54 55 42 51 46 46 47 50 49 44 38 35 38 35
39 40 40 41 43 45 46 48 49 48 43 42 43 44 44 46 44 46 44 42 41 42 42 44 43 45 44 56 59 68 69 71 48 51 48 49 50 47 42 39 35 35 35
39 40 41 42 43 44 44 46 47 44 41 42 43 40 38 38 38 38 40 41 41 44 44 42 40 40 44 45 49 50 55 61 65 60 47 50 51 46 43 39 39 37 36
39 40 42 42 43 43 44 45 44 42 42 45 43 39 37 36 33 34 37 39 39 41 45 47 46 46 45 46 50 49 53 56 64 56 49 50 50 47 45 44 41 38 36
Wind_Direction
158 183 154 148 138 136 165 220 239 222 204 187 213 188 8 357 16 77 169 196 204 195 181 169 182 192 186 157 155 169 197 179 149 128 140 154 152 148 143 150 153 159 160
114 139 162 147 115 80 66 171 227 217 172 156 170 94 75 52 44 86 183 161 173 184 179 178 196 197 191 194 187 191 174 140 192 180 171 183 171 154 168 144 153 156 163
113 125 164 106 78 58 50 47 62 154 137 139 106 122 129 80 78 50 168 170 208 213 219 190 197 214 202 215 170 180 217 235 292 223 231 208 185 173 171 151 166 164 151
134 106 83 89 67 72 33 23 69 114 124 155 172 156 146 116 129 104 117 175 144 198 198 196 225 218 197 205 218 227 247 258 283 242 214 159 197 202 159 181 179 178 172
75 89 79 83 79 62 52 355 10 104 74 42 192 197 189 201 255 194 164 161 207 233 217 193 195 214 209 222 234 250 251 288 307 260 198 218 231 218 181 187 196 182 186
69 121 79 93 79 72 65 57 106 70 57 23 333 232 211 194 216 234 227 219 207 212 205 212 217 228 226 226 227 236 239 251 261 148 127 262 265 254 221 211 204 193 195
64 74 75 70 64 61 59 48 47 53 47 23 0 345 301 251 221 228 232 231 228 222 216 228 232 239 247 235 229 231 234 228 219 219 232 260 250 234 239 222 201 200 208
61 54 56 63 55 30 20 18 30 33 32 20 2 359 331 313 290 245 245 236 226 222 225 223 233 245 246 244 240 228 232 234 224 223 230 247 253 248 248 226 209 211 206
81 71 54 35 38 29 16 10 5 11 11 358 329 333 325 318 312 297 281 267 249 236 240 236 236 241 240 245 254 244 234 221 226 232 228 242 243 241 246 257 208 228 225
32 46 66 69 74 15 338 339 337 336 325 324 321 319 312 313 306 302 303 295 278 258 255 262 247 240 227 231 231 237 241 247 231 234 233 236 246 243 247 258 229 228 264
5 3 6 6 358 340 342 304 300 300 306 311 308 310 309 304 303 302 303 298 283 271 267 264 268 227 248 231 248 237 232 242 245 246 243 241 246 246 247 255 270 277 257
350 342 337 336 330 323 319 290 275 280 293 293 298 298 290 286 293 294 295 296 289 270 261 263 266 252 237 253 237 241 238 237 244 248 250 236 248 253 247 244 245 264 262
326 323 319 314 312 310 305 296 292 290 284 281 290 289 291 292 281 281 289 285 285 278 271 263 260 259 251 252 242 240 242 239 239 243 247 239 242 247 252 246 242 239 233
312 311 305 303 303 302 303 303 299 291 284 276 269 275 281 279 279 280 268 274 270 269 272 273 272 257 250 252 254 249 245 245 244 244 240 243 246 246 244 243 242 245 239
299 300 292 297 299 298 298 297 298 299 297 293 289 282 281 277 270 270 272 271 264 262 273 270 267 262 253 253 254 249 248 246 244 245 243 239 239 245 236 236 234 240 240
291 289 288 286 285 289 294 295 295 296 296 296 296 294 290 282 273 263 258 263 267 284 265 264 260 262 261 255 254 250 248 244 247 246 246 239 235 233 236 237 235 232 235
290 288 285 286 287 287 285 286 289 294 297 300 301 298 293 285 274 267 258 253 254 257 255 256 254 255 255 258 254 251 251 247 244 245 246 242 227 232 234 235 238 233 230
302 299 295 292 284 280 284 289 293 294 298 300 300 297 292 286 279 273 266 255 250 248 248 253 256 254 252 252 254 253 249 247 244 242 243 245 235 233 236 234 235 234 233
300 296 293 292 289 288 289 293 294 296 299 301 299 291 287 285 282 279 274 265 257 250 244 244 247 252 252 250 250 250 248 243 242 240 240 241 240 241 235 235 235 236 234
295 296 296 293 290 289 291 294 294 296 299 299 289 285 281 277 274 273 273 269 264 255 249 242 239 242 248 250 249 248 247 244 242 242 240 237 236 240 241 236 237 240 241
292 292 291 290 290 291 294 295 296 297 300 299 286 277 272 275 277 272 270 266 268 261 256 245 241 239 240 246 246 250 250 246 240 240 238 236 234 233 234 235 237 240 242
290 290 289 289 291 293 295 297 297 299 303 295 285 280 276 274 270 273 272 270 265 260 259 254 243 241 239 240 225 246 246 247 246 247 246 241 234 233 235 235 235 240 243
288 288 288 290 292 294 296 297 299 302 299 290 290 288 283 280 273 270 268 265 262 262 253 258 255 249 245 247 243 246 242 222 237 239 242 245 243 237 234 237 239 242 241
287 289 290 292 293 297 298 300 301 300 293 294 294 292 286 283 279 273 265 265 259 256 256 256 257 254 255 253 255 255 263 246 258 240 236 242 244 245 246 242 242 245 242
288 290 291 294 295 297 300 302 301 294 294 295 294 291 289 285 283 276 268 265 260 254 252 250 253 253 254 255 255 259 261 257 257 257 235 237 239 242 244 243 241 244 242
290 292 294 295 297 300 303 303 298 297 294 292 290 287 285 282 282 278 272 268 262 258 255 253 251 251 250 255 257 257 257 255 253 251 253 230 236 237 239 242 243 244 243
Height
5884 5891 5891 5894 5895 5895 5897 5899 5898 5899 5899 5900 5899 5897 5899 5899 5898 5897 5897 5899 5901 5904 5908 5912 5912 5913 5914 5914 5916 5919 5920 5919 5919 5919 5918 5917 5918 5919 5919 5920 5918 5919 5919
5887 5889 5893 5894 5895 5896 5897 5897 5897 5898 5899 5899 5898 5898 5899 5899 5899 5898 5898 5899 5900 5904 5907 5909 5910 5910 5914 5914 5916 5917 5917 5919 5918 5917 5918 5919 5919 5918 5920 5918 5920 5921 5922
5890 5891 5895 5894 5896 5898 5897 5897 5898 5898 5899 5898 5898 5899 5899 5899 5899 5899 5898 5900 5901 5903 5906 5907 5909 5910 5913 5914 5916 5916 5917 5916 5917 5916 5918 5918 5919 5919 5918 5918 5920 5921 5921
5895 5896 5897 5895 5898 5899 5898 5899 5900 5899 5899 5899 5899 5899 5899 5900 5900 5899 5899 5900 5901 5901 5905 5907 5909 5909 5912 5912 5914 5915 5916 5916 5915 5914 5915 5917 5918 5920 5919 5921 5921 5921 5920
5897 5898 5899 5898 5900 5899 5899 5901 5902 5901 5899 5900 5899 5899 5899 5900 5900 5900 5901 5902 5902 5903 5905 5907 5908 5908 5911 5912 5913 5913 5913 5914 5914 5912 5913 5916 5918 5919 5919 5921 5921 5920 5920
5903 5903 5904 5902 5900 5900 5901 5904 5903 5900 5900 5900 5900 5900 5900 5901 5901 5901 5902 5902 5901 5903 5905 5907 5909 5908 5911 5911 5911 5911 5913 5915 5914 5915 5916 5916 5918 5918 5916 5917 5917 5919 5921
5903 5907 5907 5904 5902 5904 5905 5904 5902 5898 5898 5900 5900 5900 5900 5900 5901 5901 5901 5902 5903 5902 5904 5906 5909 5909 5909 5909 5909 5911 5911 5912 5914 5915 5917 5918 5916 5914 5914 5914 5915 5917 5918
5903 5904 5904 5905 5905 5905 5905 5904 5901 5899 5899 5900 5900 5899 5899 5899 5900 5900 5899 5901 5902 5902 5902 5903 5904 5905 5907 5908 5908 5909 5908 5910 5912 5914 5915 5915 5913 5913 5912 5914 5914 5915 5915
5905 5905 5905 5903 5903 5904 5904 5903 5901 5899 5899 5900 5900 5899 5898 5898 5899 5898 5899 5898 5899 5900 5901 5901 5901 5901 5902 5904 5906 5907 5907 5908 5909 5911 5913 5912 5910 5912 5912 5909 5909 5912 5913
5903 5903 5903 5904 5905 5904 5903 5902 5901 5901 5902 5901 5900 5898 5897 5896 5896 5896 5897 5897 5897 5896 5895 5895 5896 5897 5896 5896 5897 5901 5904 5905 5906 5908 5910 5910 5906 5909 5909 5907 5908 5910 5911
5900 5901 5900 5902 5901 5902 5902 5900 5900 5901 5901 5899 5898 5897 5896 5895 5895 5893 5894 5896 5894 5893 5891 5890 5890 5890 5892 5893 5894 5895 5896 5898 5900 5903 5905 5905 5903 5904 5904 5905 5907 5907 5908
5896 5897 5898 5898 5899 5899 5899 5899 5898 5899 5898 5898 5896 5895 5895 5894 5893 5892 5891 5891 5892 5891 5888 5888 5887 5887 5886 5887 5888 5889 5891 5891 5894 5896 5899 5900 5898 5898 5899 5903 5906 5907 5906
5896 5895 5894 5893 5894 5894 5896 5896 5896 5894 5893 5892 5892 5891 5890 5889 5889 5887 5886 5887 5887 5886 5885 5884 5884 5884 5883 5882 5883 5884 5886 5886 5887 5890 5892 5894 5896 5895 5894 5897 5902 5903 5904
5897 5896 5893 5890 5889 5888 5887 5887 5888 5888 5887 5888 5888 5886 5885 5883 5880 5877 5875 5878 5880 5881 5880 5879 5878 5878 5879 5879 5879 5880 5880 5880 5881 5883 5886 5888 5889 5890 5892 5893 5896 5899 5901
5893 5891 5889 5886 5882 5882 5881 5880 5879 5878 5878 5878 5879 5880 5879 5877 5875 5875 5873 5868 5866 5870 5875 5874 5872 5871 5872 5873 5873 5873 5873 5875 5876 5878 5880 5882 5883 5884 5887 5890 5891 5893 5895
5886 5885 5882 5882 5880 5878 5874 5872 5870 5869 5867 5866 5867 5868 5868 5867 5864 5863 5864 5861 5861 5860 5865 5867 5866 5865 5864 5865 5865 5866 5868 5870 5871 5872 5874 5875 5876 5879 5880 5883 5885 5888 5890
5877 5876 5876 5874 5873 5870 5868 5866 5863 5859 5857 5856 5853 5852 5852 5852 5851 5850 5851 5852 5853 5853 5855 5858 5858 5857 5857 5858 5859 5859 5861 5862 5864 5865 5867 5868 5870 5871 5873 5876 5879 5881 5883
5865 5865 5865 5864 5861 5861 5859 5857 5853 5851 5848 5845 5843 5839 5837 5836 5835 5835 5835 5837 5839 5841 5842 5844 5847 5848 5849 5848 5849 5850 5851 5853 5855 5857 5859 5861 5864 5865 5866 5869 5872 5874 5876
5857 5855 5853 5852 5851 5849 5848 5846 5843 5840 5837 5832 5829 5828 5825 5824 5822 5821 5820 5821 5823 5825 5829 5831 5833 5835 5838 5837 5837 5838 5841 5843 5845 5846 5848 5851 5854 5857 5859 5863 5866 5867 5869
5845 5844 5843 5841 5839 5838 5837 5835 5832 5829 5825 5821 5817 5813 5811 5811 5810 5809 5808 5808 5808 5809 5811 5816 5818 5820 5823 5824 5825 5825 5827 5832 5835 5835 5837 5839 5842 5845 5849 5854 5857 5860 5862
5838 5835 5833 5832 5830 5827 5825 5823 5820 5815 5812 5808 5804 5801 5797 5796 5796 5796 5795 5795 5795 5795 5795 5798 5801 5805 5806 5808 5810 5812 5814 5817 5819 5822 5826 5829 5831 5832 5836 5841 5846 5852 5851
5828 5826 5824 5822 5819 5816 5814 5811 5806 5802 5797 5793 5791 5788 5785 5784 5783 5780 5780 5779 5780 5781 5780 5780 5784 5786 5786 5778 5780 5795 5795 5801 5811 5817 5819 5823 5821 5822 5824 5828 5836 5838 5841
5820 5817 5814 5812 5809 5805 5802 5798 5793 5787 5782 5780 5777 5773 5770 5767 5765 5763 5764 5764 5764 5765 5767 5767 5769 5771 5773 5769 5767 5770 5745 5774 5792 5800 5807 5810 5814 5813 5815 5819 5823 5825 5831
5810 5807 5805 5802 5797 5793 5788 5783 5778 5773 5769 5766 5762 5758 5754 5750 5748 5746 5747 5749 5750 5751 5753 5754 5756 5757 5758 5759 5762 5762 5756 5764 5776 5786 5790 5798 5804 5805 5809 5812 5813 5816 5821
5801 5797 5794 5790 5786 5781 5776 5770 5764 5760 5757 5754 5749 5745 5741 5737 5734 5733 5733 5733 5735 5736 5738 5741 5744 5745 5746 5747 5748 5749 5749 5756 5762 5769 5776 5786 5791 5792 5796 5800 5804 5807 5810
5790 5786 5782 5778 5774 5769 5764 5758 5752 5748 5744 5740 5736 5733 5730 5727 5724 5722 5720 5720 5721 5721 5722 5725 5730 5733 5735 5734 5733 5736 5737 5744 5749 5756 5762 5773 5776 5780 5785 5788 5792 5796 5801